Regional Weather Roundup
Issued by NWS

Home | Current Version | Previous Version | Graphics & Text | Print | Product List | Glossary On
Versions: 1 2 3 4 5 6 7 8 9 10 11 12 13 14 15 16 17 18 19 20 21 22 23 24 25 26 27 28 29 30 31 32 33 34 35 36 37 38 39 40 41 42 43 44 45 46 47 48 49 50
000
ASUS45 KCYS 051110
RWRWY

WYOMING REGIONAL WEATHER ROUNDUP
NATIONAL WEATHER SERVICE CHEYENNE WY
500 AM MDT SAT SEP 05 2015

NOTE:  "FAIR" INDICATES FEW OR NO CLOUDS BELOW 12,000 FEET
WITH NO SIGNIFICANT WEATHER AND/OR OBSTRUCTIONS TO VISIBILITY.

WYZ001-051200-
YELLOWSTONE NATIONAL PARK

CITY           SKY/WX    TMP DP  RH WIND       PRES   REMARKS
LK YELLOWSTONE   N/A     46  43  89 CALM      30.03F
W YELLOWSTONE  NOT AVBL

$$
WYZ002>013-054>058-071-098>099-051200-
NORTHERN WYOMING

CITY           SKY/WX    TMP DP  RH WIND       PRES   REMARKS
JACKSON        CLOUDY    50  48  93 NW5       29.98F
CODY           FAIR      48  45  87 E8        29.95R
GREYBULL       FAIR      53  45  74 NW10      29.90R
WORLAND        FAIR      49  45  86 E5        29.91R
SHERIDAN       FAIR      51  46  83 W8        29.89S
BUFFALO        FAIR      52  48  86 N7        29.92S
GILLETTE       FAIR      55  52  89 SW3       29.90R
HULETT         PTSUNNY   63  54  72 CALM      29.88F
NEWCASTLE      LGT RAIN  64  50  59 N6        29.87F

$$
WYZ014>020-022>026-101>103-051200-
CENTRAL WYOMING

CITY           SKY/WX    TMP DP  RH WIND       PRES   REMARKS
BIG PINEY      FAIR      50  39  66 S13       30.02S
PINEDALE       FAIR      52  37  58 SE9       30.04R
DUBOIS         FAIR      50  36  57 W6        29.97S
LANDER         FAIR      56  40  55 NW12      29.89R
RIVERTON       FAIR      59  42  53 S6        29.91R
CASPER         FAIR      56  46  69 SW7       29.95R
DOUGLAS        FAIR      56  52  86 SE5       29.94F

$$
WYZ021-027>030-104>119-051200-
SOUTHERN WYOMING

CITY           SKY/WX    TMP DP  RH WIND       PRES   REMARKS
EVANSTON       FAIR      58  36  43 S13       30.00R
KEMMERER       FAIR      54  34  47 S8        30.03R
ROCK SPRINGS   FAIR      56  45  66 S17       30.04R
DIXON          FAIR      49  46  88 CALM      30.12R
RAWLINS        FAIR      58  43  57 SW14      30.06S
SARATOGA       FAIR      50  45  81 SE7       30.10S
LARAMIE        FAIR      57  45  64 SW8       30.09S
CHEYENNE       MOCLDY    65  45  48 W6        30.01R
TORRINGTON     MOCLDY    64  58  80 MISG      29.87R
PINE BLUFFS    PTSUNNY   61  52  72 W6        29.95S

$$



USA.gov is the U.S. government's official web portal to all federal, state and local government web resources and services.